Temperature
18 18 18 17 17 17 17 17 17 17 17 17 17 16 16 16 16 16 16 15 15 15 15 15 15 15 15 15 14 14 14 14 14 14 14 14 14 14 14 14 14 13 13
18 18 18 18 17 17 17 17 17 17 17 17 17 16 16 16 16 16 16 16 15 15 15 15 15 15 15 14 14 14 14 14 14 14 14 14 14 14 14 14 14 13 13
19 18 18 18 18 18 17 17 17 17 17 17 16 16 16 16 16 16 16 16 16 15 15 15 15 15 15 15 14 14 14 14 14 14 14 14 14 14 13 13 13 13 13
19 18 18 18 18 18 17 17 17 17 17 17 17 16 16 16 16 16 16 16 16 16 15 15 15 15 15 15 14 14 14 14 14 13 14 14 14 14 13 13 13 13 13
19 18 18 18 18 18 17 17 17 17 17 17 17 16 16 16 16 16 16 16 16 16 15 15 15 15 15 14 14 14 14 14 13 13 13 13 14 13 13 13 13 13 13
19 19 18 18 18 18 17 17 17 17 17 17 17 16 16 16 16 16 16 16 16 15 15 15 15 15 15 14 14 14 14 13 13 13 13 13 13 13 13 13 12 12 12
19 19 19 18 18 18 18 17 17 17 17 17 17 17 16 16 16 16 16 15 15 15 15 15 15 15 15 14 14 14 13 13 13 13 13 13 13 13 13 12 12 12 12
19 18 18 18 18 18 17 17 17 17 17 17 16 16 16 16 16 15 15 15 15 15 15 15 15 15 14 14 14 14 13 13 13 13 13 13 13 13 12 12 12 12 12
18 18 18 18 18 17 17 17 17 16 16 16 16 16 15 15 15 15 15 14 14 15 14 14 14 14 14 14 13 13 13 13 13 13 13 12 12 12 12 12 12 11 11
18 18 18 17 17 17 17 16 16 16 16 16 15 15 15 15 15 14 14 14 14 14 14 14 14 13 13 13 13 13 13 13 13 13 12 12 12 12 12 12 12 11 11
17 17 17 17 16 16 16 16 15 15 15 15 15 15 15 14 14 14 14 14 14 14 13 13 13 13 13 12 12 12 12 12 12 12 12 12 12 12 12 12 12 11 11
16 16 16 16 16 15 15 15 15 15 14 14 14 14 14 14 14 14 14 13 13 13 13 13 13 12 12 12 12 12 12 11 11 11 11 11 12 12 12 12 11 11 11
15 15 15 15 15 15 15 14 14 14 14 14 14 13 13 13 13 13 13 13 12 12 12 12 12 12 11 11 11 11 11 11 11 11 11 11 11 11 11 11 11 11 11
15 14 14 14 14 14 14 14 14 13 13 13 13 13 13 13 13 13 12 12 12 12 12 11 11 11 11 11 11 11 11 10 10 10 10 10 10 10 10 11 11 11 10
14 14 13 13 13 13 13 13 13 13 13 13 13 13 12 12 12 12 12 11 11 11 11 11 11 11 10 10 10 10 10 10 10 10 10 10 10 10 10 10 10 10 10
13 13 13 13 13 13 13 13 13 13 13 12 12 12 12 12 12 12 11 11 11 11 11 11 10 10 10 10 10 10 10 10 9 9 9 9 9 9 9 9 9 9 9
12 12 12 12 12 12 12 12 12 12 12 12 12 12 12 12 11 11 11 11 10 10 10 10 10 9 9 9 9 9 9 9 9 9 9 8 8 9 8 8 9 9 9
12 12 12 12 12 12 12 12 12 12 12 12 12 11 11 11 11 11 10 10 10 10 10 9 9 9 9 8 8 8 8 8 8 8 8 8 8 8 8 8 8 8 8
11 11 11 11 11 11 11 11 11 11 11 11 11 11 11 11 10 10 10 10 9 9 9 9 8 8 8 8 8 8 7 7 7 7 7 7 7 7 7 7 7 7 8
11 11 11 11 11 11 11 11 11 11 11 10 10 10 10 10 10 10 9 9 9 9 8 8 8 8 7 7 7 7 7 7 7 7 7 7 7 7 7 7 7 7 7
11 10 10 10 10 10 10 10 10 10 10 10 10 9 9 9 9 9 8 8 8 8 8 7 7 7 7 7 7 6 6 6 6 6 6 6 6 6 6 6 6 7 7
10 10 10 10 10 10 10 10 9 9 9 9 9 9 8 8 8 8 7 7 7 7 7 6 6 6 6 6 6 6 6 6 6 6 6 6 5 6 6 6 6 6 6
10 10 9 9 9 9 9 9 9 8 8 8 8 8 8 7 7 7 7 6 6 6 6 6 6 6 6 6 5 5 5 5 5 5 5 5 5 5 5 6 6 6 6
9 9 9 8 8 8 8 8 8 7 7 7 7 7 7 6 6 6 6 6 6 5 5 5 5 5 5 5 5 5 5 5 5 5 5 5 5 5 5 5 6 6 6
8 8 8 8 7 7 7 7 7 7 6 6 6 6 6 5 5 5 5 5 5 5 5 5 5 5 5 5 5 5 5 5 5 4 5 5 5 5 5 5 5 6 6
7 7 7 7 6 6 6 6 6 6 5 5 5 5 5 5 5 4 4 4 4 4 4 4 4 4 4 4 4 4 5 5 5 5 5 5 5 5 5 5 5 6 6
Wind_Speed
11 10 10 9 9 8 8 9 9 8 8 9 9 8 8 7 7 6 5 6 6 5 4 5 5 4 3 2 2 2 3 4 4 4 3 3 3 4 5 9 12 13 14
11 10 10 9 9 9 9 9 8 9 9 9 9 9 9 8 8 8 7 7 7 7 6 6 6 5 5 4 3 3 3 4 4 5 4 3 5 5 5 5 8 11 12
10 10 9 9 10 10 9 9 9 9 9 8 9 9 9 8 8 8 8 7 8 8 7 7 7 6 6 5 5 5 4 4 4 4 5 4 4 4 4 5 5 5 9
11 10 10 10 10 9 9 9 9 10 10 9 9 9 9 8 8 8 8 8 7 8 8 8 8 8 8 8 6 7 6 5 4 4 5 5 5 5 3 4 5 4 5
11 11 11 9 9 8 8 8 9 9 10 9 9 9 8 8 8 8 8 8 8 8 7 7 8 9 11 9 7 7 6 5 5 5 6 5 5 4 5 4 5 6 5
12 12 11 10 9 10 9 8 8 8 8 8 9 9 9 9 11 13 10 8 8 8 8 7 7 9 11 13 13 12 10 8 8 6 6 7 8 7 6 5 5 4 5
10 10 10 10 11 11 11 9 9 9 8 8 9 9 9 10 13 13 14 9 8 8 8 7 7 8 9 8 10 12 12 14 13 9 9 10 9 8 6 7 7 7 8
9 8 8 8 8 8 8 9 8 7 7 7 7 7 7 9 11 12 12 9 7 8 8 8 8 8 8 7 7 8 9 10 11 10 10 12 11 10 9 9 9 8 7
7 7 7 7 7 7 7 7 6 6 6 6 5 6 6 6 9 10 9 5 6 7 7 7 8 8 10 9 7 8 9 9 12 15 16 16 18 19 13 6 6 6 8
6 6 5 6 6 6 6 5 4 5 6 6 5 5 6 6 7 8 9 5 6 6 6 6 9 9 9 8 6 7 9 10 9 8 9 12 13 15 17 12 10 9 8
4 4 4 4 5 5 4 3 3 3 4 5 5 4 5 6 6 9 10 6 7 6 6 5 5 7 8 9 9 9 13 11 8 8 8 9 8 9 10 10 10 11 11
4 4 3 3 4 4 5 4 4 4 3 3 3 3 3 3 4 6 9 9 7 5 5 4 4 6 8 10 9 11 14 11 7 7 8 9 9 10 10 10 10 12 13
6 4 3 2 1 2 3 3 2 3 3 3 3 3 3 2 2 4 6 7 7 5 4 6 7 9 9 8 11 13 11 7 6 7 9 10 10 10 9 8 8 9 10
7 5 4 4 3 3 2 2 2 3 3 3 3 4 3 2 2 2 2 3 3 4 4 5 7 8 8 9 9 8 6 6 7 8 8 9 8 7 8 8 8 8 8
7 5 4 3 3 3 2 1 1 2 4 4 4 4 4 3 4 5 3 2 2 3 2 2 2 3 5 5 5 6 6 5 6 6 7 8 8 8 9 7 7 7 8
6 5 3 3 2 2 2 3 4 2 3 4 5 4 4 6 5 5 4 4 4 3 2 3 4 5 6 6 6 7 6 6 6 6 6 7 8 8 9 7 7 8 9
5 4 3 3 3 2 2 2 3 5 4 3 4 5 7 6 6 5 3 3 4 3 3 4 5 5 6 6 6 6 6 7 6 6 6 7 8 8 8 8 8 8 9
5 4 4 2 2 2 2 1 1 1 2 3 3 3 5 6 5 4 2 0 2 1 3 4 5 6 6 6 6 6 6 6 6 6 6 7 7 7 8 8 8 9 9
4 3 3 2 2 2 2 2 1 1 1 2 2 3 3 2 2 2 3 2 3 4 4 5 5 6 6 6 6 6 6 6 6 6 6 7 7 7 8 8 9 11 10
4 5 4 2 2 3 3 2 2 2 2 2 2 2 2 1 1 2 2 3 4 5 5 5 5 6 6 5 6 6 6 6 7 6 7 7 7 7 9 10 9 9 9
4 4 6 4 3 3 3 2 2 1 1 1 2 2 2 0 2 3 3 3 4 5 5 5 6 6 6 5 6 6 7 7 7 7 7 8 8 8 8 8 9 9 9
4 3 3 3 3 3 3 2 2 2 2 2 2 3 4 2 2 3 3 4 4 4 5 5 5 5 5 6 6 6 7 7 7 7 8 8 8 8 9 9 9 9 9
4 4 4 3 3 4 3 3 3 2 2 2 2 3 3 3 3 3 4 5 5 5 5 5 6 6 6 5 5 6 7 8 7 8 8 9 9 9 9 9 11 11 9
4 4 4 4 4 4 3 3 3 2 2 2 2 3 3 3 4 5 5 5 5 6 6 5 6 7 9 7 6 6 6 7 7 7 9 9 10 10 9 10 10 11 10
4 4 4 4 4 4 4 4 4 3 3 3 3 3 4 4 4 5 5 5 6 7 8 7 6 7 9 9 9 8 10 11 11 9 8 8 10 11 11 11 10 10 10
4 4 4 4 4 3 3 4 4 4 4 4 3 4 4 5 5 5 5 5 6 7 8 7 8 10 10 9 11 12 12 12 11 10 8 8 9 10 10 9 11 10 10
Wind_Direction
182 182 180 180 181 176 176 181 181 179 173 174 175 172 172 173 170 166 175 175 183 198 199 192 208 204 202 202 170 161 167 165 211 267 266 279 285 281 280 261 259 257 259
187 183 182 180 177 178 181 182 176 175 176 177 176 177 182 183 181 181 191 192 194 204 211 205 218 216 215 219 207 209 209 196 198 247 274 277 268 266 266 268 266 262 259
183 184 185 183 182 185 185 179 176 177 179 180 178 182 187 187 189 194 196 198 203 209 211 211 218 210 221 224 219 221 226 223 203 221 256 258 267 270 278 281 274 270 269
182 185 191 190 189 189 186 183 183 180 180 184 187 189 190 190 194 199 201 205 210 214 214 213 215 210 218 222 225 225 225 229 228 231 252 262 265 271 262 269 284 275 271
180 187 193 190 187 187 187 191 191 188 189 188 189 193 195 195 203 202 207 212 215 221 224 223 223 222 221 219 223 220 217 224 230 236 251 262 264 265 256 250 261 274 273
181 190 191 188 188 193 193 192 189 190 193 188 194 198 201 209 210 205 203 211 213 219 229 235 238 236 237 233 233 226 213 218 227 233 244 246 254 247 249 249 252 266 278
184 191 192 191 193 198 197 190 193 195 192 194 200 199 208 216 214 211 208 206 213 218 223 231 243 242 236 237 244 246 240 234 226 225 238 247 251 245 240 250 245 241 252
177 184 185 186 192 194 191 194 198 196 197 201 206 208 211 222 217 218 219 216 221 225 225 226 233 245 243 234 240 249 250 248 240 234 237 247 248 246 235 240 249 255 260
173 184 186 187 187 184 191 198 195 191 197 202 202 206 210 224 220 220 214 216 232 240 240 238 236 243 252 245 239 250 260 263 258 247 241 245 249 250 244 243 247 248 265
178 181 179 175 172 181 193 200 192 193 197 194 202 208 212 220 217 215 209 213 232 246 252 250 242 243 255 252 240 246 258 264 267 272 261 259 257 258 252 236 235 243 251
153 147 149 161 166 172 176 180 173 179 188 194 201 214 217 220 217 213 207 210 226 239 248 251 246 249 259 264 255 247 254 261 268 265 267 267 264 259 256 244 231 232 241
101 105 120 145 164 160 155 166 166 165 177 201 213 232 236 231 222 216 209 212 215 225 244 251 250 262 271 273 267 258 265 271 265 264 266 267 266 264 260 252 242 237 238
88 86 83 82 112 130 148 157 156 166 183 195 199 216 236 238 222 206 205 214 219 221 246 262 274 280 283 278 271 272 275 265 256 259 264 266 263 263 264 262 259 252 250
76 69 66 66 55 47 68 129 160 176 187 199 208 216 228 235 231 206 191 205 228 241 264 279 285 285 279 273 280 282 268 256 254 259 264 267 271 271 269 265 266 266 265
71 63 59 65 68 55 42 38 183 211 203 200 210 204 199 221 233 211 195 210 217 226 245 274 285 290 289 286 283 278 275 275 268 263 265 272 275 273 272 267 261 261 257
66 53 49 46 47 41 41 12 2 319 282 236 222 212 222 224 227 219 228 241 246 228 199 254 266 268 269 276 282 286 282 277 271 269 269 269 272 274 275 272 263 260 262
57 43 38 35 36 30 36 33 353 344 342 297 252 238 235 245 254 257 271 290 273 202 211 253 261 264 266 268 269 271 276 277 274 275 276 277 276 274 272 272 270 266 265
39 31 31 17 7 4 355 342 336 326 336 331 321 278 253 251 256 258 239 117 300 244 237 252 259 263 264 267 269 273 278 284 284 283 281 279 277 277 279 276 271 267 268
26 13 13 7 4 5 360 360 348 339 308 296 317 334 320 280 275 245 180 194 242 261 258 256 258 261 264 265 268 272 274 275 277 279 280 280 279 279 279 276 273 270 267
8 6 10 7 360 1 358 352 335 326 317 320 324 315 331 30 346 299 239 240 248 257 261 264 267 266 267 270 274 275 276 274 277 277 278 280 280 279 279 277 275 274 270
9 3 4 7 1 351 344 336 327 333 334 329 315 330 5 336 287 292 286 268 261 265 267 269 272 273 272 274 276 276 276 277 277 277 280 281 283 282 280 277 275 274 273
7 2 1 352 347 355 353 352 358 359 353 345 330 343 3 4 322 312 304 294 283 274 271 270 273 271 269 273 276 279 280 281 282 284 283 282 280 281 281 280 281 279 275
11 9 7 0 358 3 4 2 358 351 345 341 341 344 344 332 320 314 309 306 304 300 293 285 283 283 282 277 273 273 280 283 283 284 287 288 287 287 286 283 283 283 278
20 18 12 4 2 358 350 344 343 339 333 331 331 325 318 313 312 311 310 308 309 306 302 296 290 289 290 290 286 283 280 282 284 281 282 284 287 287 286 285 283 280 278
20 17 11 3 353 346 349 349 345 342 340 337 333 327 322 319 315 313 313 311 312 310 310 309 302 299 298 299 301 300 297 293 287 284 283 281 281 281 282 282 281 282 280
16 10 2 356 354 357 359 355 348 345 340 336 330 321 317 315 313 312 313 313 314 312 310 309 307 306 306 306 305 308 304 297 289 283 280 277 276 277 281 281 283 282 282
Height
1505 1508 1511 1515 1518 1520 1523 1525 1528 1530 1532 1534 1536 1538 1540 1541 1542 1543 1545 1546 1547 1548 1549 1550 1551 1552 1552 1553 1553 1553 1553 1553 1552 1552 1552 1551 1551 1550 1550 1549 1548 1547 1546
1503 1506 1509 1512 1515 1517 1520 1522 1524 1526 1529 1531 1533 1535 1537 1538 1540 1541 1542 1544 1545 1546 1547 1548 1548 1549 1549 1550 1550 1550 1550 1550 1550 1549 1548 1548 1547 1547 1546 1545 1544 1543 1542
1501 1504 1507 1509 1512 1514 1517 1519 1521 1523 1526 1528 1530 1532 1534 1535 1537 1538 1540 1541 1542 1543 1544 1545 1545 1546 1546 1547 1547 1547 1547 1547 1546 1545 1544 1544 1543 1543 1542 1541 1540 1538 1538
1498 1501 1503 1506 1509 1511 1514 1516 1518 1520 1522 1525 1527 1529 1531 1532 1534 1535 1537 1538 1539 1540 1541 1541 1542 1542 1543 1543 1543 1543 1543 1543 1542 1541 1540 1539 1538 1538 1537 1535 1534 1533 1532
1495 1498 1501 1504 1506 1509 1511 1513 1515 1517 1519 1521 1523 1525 1527 1528 1530 1532 1533 1534 1535 1536 1537 1537 1538 1538 1539 1539 1539 1538 1538 1538 1537 1536 1535 1534 1533 1533 1532 1530 1528 1527 1526
1492 1494 1497 1500 1502 1505 1508 1510 1511 1514 1516 1517 1519 1521 1522 1524 1526 1527 1529 1530 1531 1532 1532 1533 1533 1534 1534 1534 1534 1534 1534 1533 1532 1531 1530 1528 1527 1527 1526 1525 1523 1521 1518
1488 1491 1494 1496 1499 1502 1504 1506 1508 1510 1512 1512 1514 1516 1518 1520 1521 1523 1524 1525 1526 1527 1527 1528 1528 1528 1528 1528 1528 1528 1527 1527 1526 1526 1524 1522 1522 1521 1520 1519 1517 1515 1512
1485 1488 1491 1493 1495 1498 1500 1502 1504 1506 1507 1509 1510 1512 1513 1515 1517 1518 1519 1520 1521 1521 1521 1522 1522 1522 1522 1522 1522 1521 1521 1520 1520 1519 1518 1516 1516 1515 1514 1512 1510 1508 1505
1483 1485 1487 1489 1492 1494 1496 1498 1500 1501 1502 1504 1505 1507 1508 1509 1511 1513 1514 1514 1515 1515 1515 1516 1516 1516 1516 1516 1515 1514 1513 1513 1513 1512 1511 1509 1508 1508 1507 1505 1502 1500 1496
1480 1483 1485 1487 1488 1490 1492 1494 1495 1496 1497 1499 1500 1502 1503 1504 1505 1507 1508 1508 1508 1508 1509 1509 1509 1509 1509 1509 1508 1507 1505 1504 1504 1503 1502 1501 1500 1499 1498 1497 1494 1492 1489
1479 1482 1483 1484 1486 1487 1489 1491 1491 1492 1492 1494 1496 1497 1498 1499 1500 1501 1502 1502 1502 1502 1502 1502 1502 1502 1502 1501 1501 1499 1498 1497 1496 1494 1493 1492 1491 1489 1488 1487 1485 1484 1481
1479 1481 1482 1483 1484 1485 1486 1487 1488 1489 1490 1491 1492 1493 1494 1495 1496 1496 1497 1497 1496 1496 1495 1495 1495 1495 1495 1494 1493 1492 1491 1489 1487 1486 1484 1482 1481 1480 1478 1477 1476 1474 1472
1478 1479 1480 1482 1483 1483 1484 1485 1486 1487 1487 1488 1488 1489 1490 1491 1491 1492 1492 1492 1492 1491 1491 1490 1490 1490 1489 1488 1487 1485 1484 1482 1480 1478 1475 1474 1472 1471 1469 1468 1466 1465 1463
1478 1478 1479 1480 1481 1482 1483 1483 1483 1484 1485 1485 1485 1485 1486 1487 1487 1487 1487 1487 1487 1486 1485 1485 1485 1484 1483 1481 1480 1478 1476 1474 1472 1470 1467 1466 1464 1462 1460 1459 1457 1455 1452
1479 1479 1479 1480 1480 1481 1481 1482 1482 1482 1482 1482 1482 1483 1483 1483 1483 1483 1483 1482 1482 1481 1480 1479 1478 1477 1476 1474 1473 1471 1469 1467 1465 1463 1460 1458 1456 1454 1452 1450 1448 1446 1444
1480 1480 1480 1480 1480 1480 1480 1480 1479 1480 1480 1480 1479 1480 1479 1479 1479 1479 1478 1478 1477 1476 1475 1473 1472 1471 1470 1468 1466 1464 1462 1460 1458 1456 1453 1450 1448 1446 1443 1441 1440 1437 1434
1481 1480 1480 1480 1480 1479 1479 1479 1479 1479 1479 1478 1477 1477 1476 1476 1475 1475 1474 1473 1473 1471 1470 1469 1467 1466 1464 1462 1460 1458 1456 1453 1451 1449 1446 1443 1441 1438 1435 1433 1431 1428 1425
1482 1481 1480 1480 1479 1479 1479 1478 1478 1477 1477 1476 1475 1474 1473 1473 1472 1471 1470 1469 1468 1467 1465 1463 1462 1460 1458 1456 1454 1451 1449 1446 1444 1441 1438 1436 1433 1430 1427 1424 1422 1419 1416
1482 1481 1481 1480 1479 1478 1478 1477 1476 1476 1475 1474 1473 1472 1470 1469 1468 1467 1465 1464 1463 1461 1460 1458 1456 1454 1452 1450 1447 1444 1441 1439 1436 1433 1431 1428 1425 1422 1419 1416 1413 1411 1408
1482 1481 1480 1479 1478 1477 1476 1475 1475 1474 1472 1471 1470 1468 1467 1465 1464 1463 1461 1459 1457 1455 1454 1452 1450 1448 1445 1442 1439 1437 1434 1431 1428 1426 1423 1420 1417 1414 1410 1407 1405 1402 1399
1482 1480 1479 1478 1477 1476 1475 1473 1472 1471 1469 1468 1466 1465 1463 1462 1460 1458 1456 1454 1452 1450 1448 1445 1443 1440 1438 1435 1432 1430 1427 1424 1421 1418 1415 1411 1408 1405 1402 1399 1396 1394 1391
1481 1479 1478 1477 1475 1474 1473 1471 1469 1468 1466 1464 1462 1461 1459 1457 1455 1453 1451 1449 1446 1444 1442 1439 1436 1434 1431 1428 1425 1422 1419 1416 1413 1410 1407 1404 1400 1397 1394 1391 1388 1386 1384
1479 1478 1476 1474 1473 1471 1470 1468 1466 1464 1462 1460 1458 1456 1454 1452 1450 1448 1446 1443 1441 1438 1435 1433 1430 1427 1424 1421 1418 1415 1412 1408 1406 1403 1399 1396 1393 1390 1387 1383 1381 1379 1377
1477 1475 1473 1472 1470 1468 1466 1464 1462 1461 1459 1457 1454 1452 1450 1447 1445 1443 1440 1438 1435 1432 1430 1427 1423 1420 1417 1414 1411 1408 1405 1402 1398 1395 1392 1388 1385 1382 1380 1377 1375 1373 1371
1475 1473 1471 1469 1467 1465 1463 1461 1459 1457 1455 1452 1450 1448 1446 1443 1440 1438 1435 1432 1429 1427 1424 1420 1417 1414 1411 1407 1404 1401 1397 1394 1391 1387 1384 1381 1378 1376 1373 1371 1369 1367 1366
1473 1471 1468 1466 1464 1462 1460 1457 1455 1453 1451 1448 1446 1444 1441 1439 1436 1433 1430 1427 1424 1420 1417 1414 1411 1407 1404 1400 1397 1393 1390 1386 1383 1380 1377 1374 1372 1370 1368 1366 1364 1362 1361